Missoula, MT

1:57 AM MST on December 04, 2016 (GMT -0700)
Missoula International

Weather History for KMSO - October, 2012

Change the Weather History Date:

Monday, October 15, 2012

  Actual Average Record
Temperature  
Mean Temperature 56 °F 45 °F  
Max Temperature 61 °F 58 °F 81 °F (1991)
Min Temperature 50 °F 32 °F 17 °F (1969)
Degree Days  
Heating Degree Days 9 20  
Month to date heating degree days 252 252  
Since 1 July heating degree days 421 577  
Cooling Degree Days 0 0  
Month to date cooling degree days 0 0  
Year to date cooling degree days 415 332  
Growing Degree Days 6 (Base 50)    
Moisture  
Dew Point 46 °F    
Average Humidity 73    
Maximum Humidity 89    
Minimum Humidity 57    
Precipitation  
Precipitation 0.11 in 0.03 in 0.44 in (1979)
Month to date precipitation 0.56 0.42  
Year to date precipitation 11.07 11.62  
Snow  
Snow 0.00 in - - ()
Month to date snowfall T  
Year to date snowfall 29.2  
Since 1 July snowfall T  
Snow Depth 0.00 in    
Sea Level Pressure  
Sea Level Pressure 29.90 in    
Wind  
Wind Speed 4 mph (SSE)    
Max Wind Speed 13 mph    
Max Gust Speed 28 mph    
Visibility 10 miles    
Events Rain    
T = Trace of Precipitation, MM = Missing Value Source: NWS Daily Summary

Daily Weather History Graph

Daily Weather History Graph

Search for Another Location

Airport or City:

Trip Planner

Search our weather history database for the weather conditions in past years. The results will help you decide how hot, cold, wet, or windy it might be!

Date:

Astronomy

Oct. 15, 2012 Rise Set
Actual Time 7:55 AM MDT 6:48 PM MDT
Civil Twilight 7:24 AM MDT 7:18 PM MDT
Nautical Twilight 6:49 AM MDT 7:53 PM MDT
Astronomical Twilight 6:13 AM MDT 8:29 PM MDT
Moon 8:14 AM MDT (10/15) 6:44 PM MDT (10/15)
Length of Visible Light 11h 54m
Length of Day
10h 52m
New Moon, 0% of the Moon is Illuminated
Oct 15
New Moon
Oct 21
First Quarter
Oct 29
Full
Nov 6
Last Quarter
Nov 13
New

Hourly Weather History & Observations

Time (MDT) Temp. Dew Point Humidity Pressure Visibility Wind Dir Wind Speed Gust Speed Precip Events Conditions
12:53 AM 54.0 °F 43.0 °F 66% 29.93 in 10.0 mi Calm Calm - N/A   Overcast
1:53 AM 54.0 °F 43.0 °F 66% 29.92 in 10.0 mi West 3.5 mph - N/A   Overcast
2:53 AM 57.0 °F 42.1 °F 57% 29.91 in 10.0 mi Calm Calm - N/A   Overcast
3:53 AM 57.9 °F 43.0 °F 58% 29.90 in 10.0 mi West 5.8 mph - N/A   Overcast
4:53 AM 57.0 °F 44.1 °F 62% 29.88 in 10.0 mi Calm Calm - N/A   Overcast
5:53 AM 55.9 °F 45.0 °F 67% 29.89 in 10.0 mi Calm Calm - 0.00 in   Overcast
6:53 AM 53.1 °F 46.9 °F 80% 29.91 in 10.0 mi North 4.6 mph - 0.00 in Rain Light Rain
7:53 AM 53.1 °F 48.0 °F 83% 29.92 in 10.0 mi Calm Calm - 0.00 in Rain Light Rain
8:53 AM 52.0 °F 48.0 °F 86% 29.93 in 10.0 mi NE 3.5 mph - 0.00 in   Overcast
9:53 AM 52.0 °F 48.0 °F 86% 29.94 in 10.0 mi WNW 4.6 mph - N/A   Overcast
10:53 AM 53.1 °F 48.0 °F 83% 29.94 in 10.0 mi South 3.5 mph - 0.00 in   Overcast
11:53 AM 55.0 °F 48.0 °F 77% 29.92 in 10.0 mi SE 4.6 mph - 0.00 in   Overcast
12:46 PM 53.6 °F 50.0 °F 88% 29.95 in 2.0 mi North 4.6 mph - 0.05 in Rain Heavy Rain
12:53 PM 53.1 °F 50.0 °F 89% 29.94 in 8.0 mi Calm Calm - 0.08 in Rain Rain
1:53 PM 55.9 °F 50.0 °F 80% 29.94 in 10.0 mi Calm Calm - 0.01 in   Overcast
2:53 PM 57.9 °F 48.0 °F 70% 29.92 in 10.0 mi Calm Calm - 0.00 in   Overcast
3:17 PM 59.0 °F 46.4 °F 63% 29.94 in 10.0 mi Calm Calm - N/A   Overcast
3:53 PM 57.9 °F 46.9 °F 67% 29.92 in 10.0 mi North 4.6 mph - 0.00 in   Overcast
4:53 PM 59.0 °F 48.0 °F 67% 29.91 in 10.0 mi Calm Calm - 0.00 in   Partly Cloudy
5:53 PM 59.0 °F 46.0 °F 62% 29.90 in 10.0 mi ESE 3.5 mph - N/A   Mostly Cloudy
6:53 PM 54.0 °F 46.0 °F 75% 29.89 in 10.0 mi South 5.8 mph - N/A   Mostly Cloudy
7:53 PM 54.0 °F 44.1 °F 69% 29.88 in 10.0 mi South 9.2 mph - N/A   Mostly Cloudy
8:53 PM 53.1 °F 44.1 °F 71% 29.88 in 10.0 mi Calm Calm - N/A   Clear
9:53 PM 51.1 °F 45.0 °F 80% 29.83 in 10.0 mi ESE 4.6 mph - N/A   Clear
10:53 PM 51.1 °F 46.0 °F 83% 29.80 in 10.0 mi SE 9.2 mph - N/A   Mostly Cloudy
11:53 PM 51.1 °F 46.0 °F 83% 29.76 in 10.0 mi SSE 11.5 mph - N/A   Overcast